GFSMA_sfc_wetblb_192.txt.gz
Wetbulb
67.95 69.22 69.24 67.79 68.07 68.60 67.95 67.40 66.77 66.73 64.95 64.88 64.35 65.88 64.22 64.61 64.26 64.94 64.26 67.83 67.81 67.46 67.27 67.39 67.07 66.63 66.62 66.13 66.09 65.63 65.38 65.53 64.88 65.44 65.25 64.63 65.31 65.70 66.18 66.31 66.54 67.51 68.78
68.35 68.43 68.37 68.10 68.58 67.66 67.65 67.36 65.93 64.61 64.52 64.41 64.78 65.21 63.86 64.94 64.83 64.34 64.39 64.75 67.89 67.35 66.94 66.86 66.70 66.37 66.34 65.50 65.44 65.20 65.13 64.80 64.56 64.70 65.02 64.57 64.29 64.30 64.18 64.79 65.28 65.85 66.43
67.49 67.56 66.78 67.94 66.98 67.92 68.02 66.63 66.09 66.44 64.99 66.00 64.89 63.48 64.25 64.54 64.73 64.39 64.92 64.51 65.88 66.62 67.20 66.35 66.19 66.23 66.00 65.39 64.85 65.00 64.76 64.56 64.46 64.29 64.05 64.41 64.16 64.13 63.84 63.88 63.88 63.86 64.40
68.56 67.64 67.64 67.12 67.68 66.33 66.11 65.98 66.14 65.95 65.62 64.64 62.52 62.84 63.15 63.88 64.35 64.65 65.32 65.08 64.08 64.53 65.86 66.65 65.99 65.83 65.72 65.32 64.62 64.18 64.09 63.93 63.90 63.97 64.08 63.88 63.73 63.64 63.45 63.02 63.36 63.34 63.29
68.21 68.48 66.90 65.76 66.91 65.79 65.93 66.11 65.80 65.20 63.52 61.53 61.40 62.06 62.78 62.05 61.92 64.07 63.95 63.45 63.08 63.37 63.30 65.79 66.28 65.95 65.30 64.74 64.12 63.87 63.63 64.03 63.76 63.32 63.42 63.29 63.30 63.41 62.99 62.87 63.02 62.98 62.86
67.60 68.27 66.79 66.15 65.89 66.23 65.37 65.65 64.32 63.22 61.60 61.01 62.37 61.54 60.64 61.05 61.37 62.88 62.10 63.99 62.76 62.99 62.86 63.65 63.16 63.68 65.26 64.41 63.91 63.70 63.18 63.47 63.12 63.38 62.88 62.92 63.04 63.01 62.57 62.51 62.50 62.25 62.44
67.76 67.27 66.67 66.08 66.28 65.06 64.78 63.72 62.15 61.19 60.36 61.29 59.52 58.55 58.78 59.59 59.44 60.47 62.72 61.27 61.90 64.04 62.28 62.26 63.10 62.66 62.99 64.42 64.12 63.97 63.08 63.69 62.45 61.89 61.78 61.82 62.23 62.24 62.45 62.34 61.76 61.82 62.13
67.55 67.17 65.86 66.42 66.25 64.44 64.94 62.56 61.54 59.90 60.05 60.46 57.95 57.50 54.54 56.44 58.37 60.03 62.19 60.75 60.61 61.27 61.85 61.85 61.33 62.23 61.32 61.16 61.53 63.98 63.53 62.62 62.04 61.99 61.89 61.73 61.59 61.64 61.80 61.26 61.43 61.41 61.23
67.49 66.08 64.36 63.83 65.36 64.70 62.25 61.97 61.69 60.43 58.29 59.40 60.43 56.72 52.35 51.47 55.01 58.28 59.50 60.36 59.70 60.17 61.04 60.55 60.75 60.99 60.54 60.62 60.91 61.06 62.19 63.08 62.17 61.95 61.53 61.54 61.54 61.13 60.94 60.72 60.41 60.66 60.55
66.47 65.66 64.81 64.21 64.50 64.50 63.03 62.60 63.31 62.17 60.39 57.70 58.69 60.26 57.02 55.06 52.58 51.05 57.43 57.81 58.99 59.72 60.05 60.28 59.85 59.71 60.63 59.70 60.46 60.99 62.01 62.11 62.29 61.75 61.11 60.83 60.71 60.81 60.79 60.02 59.60 59.46 59.49
66.19 65.68 65.13 64.74 64.78 63.92 63.65 63.11 62.06 61.48 61.48 59.41 58.01 56.99 56.22 55.08 54.80 52.73 50.76 55.41 58.93 58.34 58.89 59.64 59.10 60.05 60.30 59.56 59.41 60.09 61.31 61.10 61.65 61.73 60.97 60.74 60.72 60.23 59.95 59.90 59.28 59.14 58.44
65.72 65.86 65.42 64.81 64.64 63.93 63.13 63.09 61.20 60.36 59.82 59.17 58.63 58.23 55.90 55.34 55.37 53.16 51.81 52.84 55.37 54.94 54.76 54.62 54.92 56.10 57.09 59.46 59.74 60.03 59.86 59.81 60.90 60.79 59.72 59.14 59.60 59.51 59.42 59.44 59.06 58.95 57.95
62.74 64.45 64.41 64.08 63.89 64.22 62.01 61.18 60.57 59.97 59.24 58.30 57.78 57.63 57.31 57.06 56.87 56.59 53.73 53.50 52.87 55.33 53.96 52.53 52.72 53.95 55.06 56.33 59.11 59.35 59.87 59.45 60.16 58.95 58.14 57.51 58.01 58.63 58.44 58.69 58.21 57.67 56.87
59.07 60.90 64.75 63.44 62.81 62.49 61.44 61.56 60.69 60.03 59.37 58.82 58.19 57.62 56.92 56.99 57.75 56.74 54.55 52.82 51.94 52.93 50.43 49.53 50.97 51.05 52.55 54.36 56.54 59.43 59.29 58.94 58.77 58.63 58.07 57.73 57.32 58.20 57.76 58.05 57.40 57.02 56.21
58.99 57.71 61.30 62.44 62.19 61.34 60.75 60.39 59.65 58.72 59.31 59.00 58.07 57.50 57.24 57.46 57.59 56.33 55.69 55.05 52.88 48.98 49.07 47.41 48.51 49.78 51.11 51.46 53.74 55.38 57.87 58.95 58.26 57.60 57.53 57.08 57.06 57.52 57.65 57.25 56.62 55.94 54.84
58.85 59.07 59.62 61.25 60.85 60.25 60.37 59.86 59.23 59.22 59.27 58.64 58.97 58.63 57.72 57.13 58.49 57.51 55.48 56.08 54.19 51.71 46.58 48.62 47.17 48.39 48.69 49.41 51.00 50.00 53.75 55.59 56.41 55.97 55.40 56.03 57.29 57.32 56.46 55.22 54.16 53.46 52.43
58.00 58.19 60.74 60.60 60.30 60.35 59.95 58.60 58.96 59.15 58.74 58.67 58.73 58.55 58.11 56.97 56.64 56.27 55.41 55.52 54.29 51.30 46.22 46.31 47.54 47.32 45.84 45.97 46.25 47.82 48.89 50.45 53.43 54.90 54.28 53.59 53.44 54.00 53.58 52.91 52.27 52.15 52.02
59.14 61.07 61.48 60.45 60.28 59.73 58.77 58.91 57.91 58.97 57.86 57.45 57.54 56.75 57.23 57.57 55.19 55.30 55.49 53.78 52.69 52.92 48.71 44.63 45.55 44.88 43.64 44.13 44.13 43.79 46.01 47.90 49.24 51.59 51.74 51.33 51.67 52.41 51.78 51.02 50.41 50.42 50.98
60.52 60.69 60.35 59.81 59.62 58.62 59.00 58.38 58.24 57.45 57.95 57.70 58.02 56.86 56.61 55.62 54.41 54.80 53.64 51.50 50.47 49.84 48.47 45.72 43.54 44.99 45.08 44.67 42.88 43.12 43.25 43.73 45.70 48.10 48.61 48.98 49.02 49.37 49.51 50.21 49.82 48.97 48.08
58.76 58.81 59.43 59.69 59.07 58.71 58.88 58.34 57.82 57.67 57.34 56.59 56.25 55.88 55.91 54.62 53.69 52.03 50.55 49.26 48.09 46.40 45.53 44.25 43.45 43.22 43.82 44.33 43.27 40.22 38.32 38.86 38.63 42.81 44.92 46.09 46.99 48.55 48.32 47.59 47.85 47.47 47.14
57.65 58.81 58.80 58.97 58.49 58.32 58.61 57.51 56.40 55.29 54.54 54.12 54.35 54.54 54.58 54.74 54.45 52.38 49.34 48.02 47.23 45.92 45.08 43.86 43.09 42.48 39.84 36.80 36.56 37.85 36.92 35.12 35.01 35.92 36.21 35.96 37.20 39.84 41.96 45.68 45.69 45.84 45.39
57.42 58.27 58.52 58.10 57.72 57.79 56.52 55.85 54.39 52.50 51.51 50.32 49.18 50.50 52.44 53.33 53.04 52.83 51.84 50.74 47.95 44.67 42.66 39.59 37.74 34.00 32.53 33.86 34.66 33.97 33.74 33.31 31.69 34.57 33.23 33.61 35.39 36.41 38.13 40.03 43.65 43.16 42.53
56.28 56.97 57.12 56.94 56.03 55.54 55.93 54.62 52.74 50.09 48.51 47.43 46.73 46.29 45.98 46.58 46.25 44.77 47.13 47.02 46.56 46.32 43.18 36.04 33.57 31.81 30.89 32.00 33.43 32.85 32.48 31.30 29.22 30.64 31.75 31.23 33.05 33.66 39.01 40.37 41.86 41.05 40.71
55.07 55.60 55.61 55.58 54.84 54.83 54.81 52.84 50.98 47.34 45.59 44.59 43.98 43.33 42.57 43.06 43.40 41.46 39.85 38.97 38.65 38.12 38.27 38.77 35.92 34.59 34.63 34.15 33.37 34.12 33.10 32.57 31.26 31.19 30.18 27.67 29.97 29.07 35.54 37.04 40.49 39.95 39.88
54.79 55.37 55.13 54.32 53.30 52.70 52.87 50.70 47.72 45.90 44.19 43.60 45.16 44.83 43.46 42.65 45.43 43.67 38.01 36.61 36.28 37.44 42.99 43.45 42.62 42.23 41.91 41.34 38.45 33.13 30.69 29.55 28.51 26.60 29.86 27.28 27.31 27.03 34.48 32.29 34.18 38.77 38.34
52.25 52.97 52.99 52.67 52.17 49.74 50.90 49.74 47.63 46.35 43.97 43.46 43.91 43.95 46.62 43.01 44.48 42.31 35.08 33.76 31.99 31.54 32.68 32.34 32.02 34.23 34.71 36.18 37.92 31.36 30.02 27.35 26.19 24.23 27.67 25.89 25.90 25.76 24.65 28.11 29.15 30.31 30.41

GFSMA_sfc_wetblb_195.txt.gz
Wetbulb
66.75 68.02 69.29 67.68 67.45 67.90 67.69 66.79 66.33 65.53 63.38 62.79 63.56 65.30 64.29 63.11 63.93 63.87 64.99 68.16 68.20 67.40 67.21 67.13 66.67 66.48 65.94 65.75 65.72 65.34 65.06 64.70 65.59 65.33 65.46 65.02 65.04 64.68 64.86 65.53 66.36 66.82 67.48
67.09 67.53 68.18 68.04 66.94 68.05 67.21 66.46 65.27 63.40 63.17 62.89 63.59 64.39 63.93 64.21 63.13 63.88 64.58 66.24 68.01 67.69 66.94 66.86 66.55 66.31 65.57 65.26 65.41 65.08 64.88 65.06 64.94 64.61 64.66 64.68 64.56 64.39 64.25 64.05 64.32 65.37 66.12
67.06 65.96 66.86 66.57 66.73 67.22 66.13 66.03 64.81 64.16 63.33 64.85 64.21 64.76 63.78 63.77 63.81 63.50 62.89 64.98 64.98 66.96 67.17 66.31 66.31 65.82 65.33 64.82 64.65 64.47 64.25 64.64 64.59 64.51 64.27 64.10 64.02 63.85 63.74 63.87 63.76 63.63 64.17
67.29 65.52 65.64 65.87 66.71 66.20 65.50 64.78 64.82 63.72 64.59 65.30 64.83 62.91 62.81 63.67 63.56 64.02 63.94 64.59 63.96 64.16 65.40 66.98 65.90 65.78 65.32 64.70 64.30 64.20 64.23 63.72 63.94 64.03 64.08 63.67 63.82 63.43 63.43 63.50 63.46 63.44 63.45
68.37 67.07 66.94 65.87 65.96 64.04 64.08 65.11 64.78 64.50 64.52 64.51 62.80 61.15 61.09 61.95 62.18 63.88 63.90 63.71 62.67 62.34 62.25 66.15 65.76 65.81 64.95 64.25 64.40 64.04 63.56 63.50 63.41 63.21 63.59 63.83 63.35 63.21 63.53 63.24 63.01 63.14 63.01
67.33 67.15 66.20 65.79 65.50 63.29 63.44 63.49 64.05 63.35 62.75 61.80 62.12 60.23 59.54 59.98 60.45 60.90 61.35 62.70 63.20 62.96 62.04 62.51 62.18 62.98 65.05 64.15 63.97 63.78 63.36 63.27 62.78 62.48 62.64 63.04 63.41 63.16 62.92 62.78 62.86 62.61 62.59
65.14 66.86 66.09 65.84 65.63 63.30 63.47 64.60 62.60 60.80 60.12 59.88 58.11 57.52 58.24 58.60 58.56 59.55 62.26 61.49 62.63 63.25 61.80 61.03 62.60 62.74 62.32 64.24 64.47 63.44 63.51 63.00 62.74 62.43 62.15 62.18 62.34 62.43 62.37 62.47 62.02 61.96 61.75
65.34 67.18 65.76 64.61 65.25 63.62 63.29 61.76 60.45 58.73 58.66 58.30 56.29 56.05 53.91 55.92 57.99 59.44 61.33 60.62 59.98 61.75 61.88 62.17 61.28 61.53 60.84 59.44 60.73 63.82 63.50 62.68 62.47 61.90 61.54 61.87 62.26 61.55 61.48 61.62 61.56 61.83 61.28
62.70 60.79 64.50 65.12 65.00 63.90 61.99 60.48 59.68 58.80 56.84 57.73 58.56 54.78 50.70 50.72 56.11 58.12 58.98 60.21 58.76 59.92 60.75 60.58 60.55 60.86 60.01 59.91 60.24 61.15 62.49 63.14 61.99 61.77 61.23 61.59 61.67 61.42 61.20 60.66 60.64 60.63 61.03
61.11 62.65 63.88 65.37 64.70 63.53 62.36 61.14 60.97 59.69 58.38 56.31 57.40 58.70 55.13 55.18 51.69 49.98 56.63 58.38 59.63 59.23 59.74 60.47 59.60 59.50 59.91 59.79 60.41 60.70 61.93 62.29 62.25 60.84 60.90 60.99 60.60 60.26 60.33 60.17 59.91 59.94 59.94
60.45 60.96 64.54 65.15 64.09 63.01 62.89 62.18 60.80 60.34 59.33 57.35 56.34 55.54 54.21 53.52 53.55 51.74 50.91 55.91 56.24 56.05 55.73 55.88 56.61 57.39 58.90 59.53 59.30 60.34 60.42 60.04 61.30 60.99 61.25 61.14 60.58 60.10 59.72 60.07 59.53 59.21 59.10
63.06 65.26 64.36 64.59 64.14 63.07 62.96 62.28 60.89 60.36 60.02 59.14 58.27 55.78 54.58 53.54 52.85 52.29 50.59 54.36 53.21 52.75 53.29 53.56 53.76 54.67 55.80 57.11 59.91 60.11 59.94 59.91 60.71 60.86 60.57 60.57 60.21 59.44 59.70 59.73 59.61 58.34 58.30
58.79 62.57 63.38 63.37 63.69 63.44 63.36 61.26 59.43 58.55 58.03 57.39 57.14 55.92 56.41 55.98 55.77 54.22 52.53 51.63 53.12 54.15 52.39 51.32 51.45 52.71 53.96 55.17 57.11 59.51 59.48 58.96 59.85 59.07 58.11 58.47 58.85 58.89 58.83 58.92 58.85 57.93 57.40
58.49 59.45 60.22 62.68 62.94 61.88 61.12 59.92 59.28 58.18 58.19 57.80 56.52 56.40 55.94 56.55 56.46 55.25 53.19 51.98 51.72 51.55 48.88 48.58 50.23 50.49 51.35 53.10 56.18 58.95 59.26 59.07 58.68 58.65 58.00 57.74 57.80 58.23 58.59 58.01 58.22 57.63 56.33
58.72 59.90 58.52 60.61 62.26 60.78 60.28 59.38 58.77 58.05 58.60 58.17 57.28 57.12 56.66 56.15 55.39 55.01 54.71 53.50 50.44 48.43 48.02 46.83 48.29 49.06 50.05 50.66 54.05 55.18 57.56 59.12 58.38 57.57 57.24 56.94 57.07 57.28 57.88 57.90 57.40 56.36 54.70
57.40 58.77 59.81 61.48 60.52 60.58 59.81 58.96 58.56 58.71 58.13 57.86 57.95 56.84 55.97 55.26 55.32 54.69 53.76 53.82 51.99 49.08 45.83 48.00 46.83 47.26 47.73 48.90 51.57 51.00 54.04 55.34 56.06 55.80 55.04 54.99 55.59 55.72 55.48 55.21 54.66 54.21 55.26
56.47 57.21 57.48 58.87 60.03 59.64 59.16 58.44 58.47 58.36 57.54 57.48 58.60 57.45 55.79 55.61 55.49 54.00 53.83 54.01 51.99 49.12 45.31 46.06 46.90 46.23 45.21 45.93 46.95 48.58 49.98 50.75 51.93 53.67 54.00 53.68 53.22 52.99 52.94 53.05 53.19 53.47 53.54
57.83 57.51 59.27 59.60 60.05 58.95 58.73 58.25 57.85 58.52 57.96 57.62 57.82 57.27 55.67 56.15 53.77 53.07 52.83 52.27 51.75 50.25 47.31 43.71 45.13 44.01 43.62 44.19 44.27 45.39 46.79 48.11 48.04 50.60 51.14 50.94 51.04 51.77 52.01 51.79 51.24 50.58 50.07
57.27 57.96 60.36 60.00 58.95 58.60 57.90 58.08 57.94 57.38 57.45 57.89 57.53 56.92 54.93 55.30 54.55 53.24 51.61 49.76 48.79 48.57 47.40 44.95 43.32 44.95 44.68 44.19 42.77 42.04 41.26 39.69 42.53 47.69 48.59 49.75 49.13 48.49 49.02 49.20 48.64 48.96 48.73
59.00 59.09 59.37 59.27 58.93 58.24 58.02 57.37 56.83 56.57 56.47 56.06 55.85 55.77 55.13 54.17 52.27 50.58 49.21 47.69 47.03 46.11 45.38 44.53 43.52 43.20 43.69 44.34 40.66 36.00 33.70 34.73 34.62 39.28 44.54 46.22 46.78 47.51 47.64 47.62 47.28 46.59 46.45
57.75 58.65 58.52 58.53 58.49 57.71 57.16 55.69 55.60 55.11 54.38 54.00 54.24 54.17 53.86 53.87 53.51 51.40 48.49 47.08 46.53 44.77 44.29 42.14 38.03 37.49 37.00 34.12 33.50 35.19 32.46 31.61 31.84 32.59 33.49 35.00 37.84 38.40 40.43 44.15 43.68 43.66 43.24
57.99 57.97 58.01 57.92 57.35 56.99 56.48 55.67 54.07 52.63 51.99 51.31 50.66 51.70 52.64 53.19 52.72 52.57 51.39 50.09 46.67 41.28 38.27 34.76 32.31 31.95 30.31 31.74 31.92 31.93 32.36 30.79 26.93 31.49 31.24 31.22 34.89 35.08 36.53 37.59 42.08 41.79 41.41
57.84 57.76 57.57 56.53 55.27 54.92 55.55 54.16 52.31 49.37 48.40 47.69 46.84 46.08 45.26 45.32 45.33 44.32 46.93 46.93 45.80 44.74 41.07 34.56 31.78 29.92 29.50 30.16 31.53 30.65 29.44 27.12 25.27 28.03 30.18 27.12 30.60 33.17 36.58 39.52 41.09 40.64 40.25
56.00 55.98 55.54 55.08 54.10 53.93 53.81 51.98 49.99 46.31 45.48 44.97 44.06 42.75 41.52 41.05 41.27 38.86 37.44 36.74 36.54 36.62 36.94 37.00 33.91 32.66 31.62 30.55 31.05 32.32 29.50 28.10 27.71 29.06 28.22 24.74 26.85 32.73 35.90 33.55 39.79 39.27 39.18
54.92 54.75 54.72 53.63 52.01 51.23 51.91 50.41 47.38 44.22 42.85 43.20 43.72 43.15 42.42 40.96 44.37 43.37 37.60 36.12 35.65 36.82 41.99 42.59 42.02 41.94 41.51 40.72 36.23 31.78 27.68 28.27 25.90 25.43 27.23 25.66 24.71 31.56 30.31 28.44 30.84 37.82 38.36
54.07 53.77 52.74 51.78 51.23 49.55 50.95 49.70 47.02 44.38 42.96 42.96 42.94 42.24 44.13 41.14 43.26 41.43 34.62 32.78 29.91 29.10 30.22 29.94 29.72 32.21 33.41 36.06 36.59 28.87 27.58 25.12 24.24 23.20 26.75 25.37 24.28 24.07 23.20 25.48 26.70 28.06 29.09

GFSMA_sfc_wetblb_198.txt.gz
Wetbulb
65.11 65.89 67.65 68.19 67.62 66.78 67.17 66.17 65.91 65.12 63.86 62.72 62.42 65.19 62.53 63.45 63.70 64.31 64.37 68.46 68.65 67.48 67.19 66.78 66.18 65.78 65.81 65.12 65.03 65.02 65.38 65.24 65.19 65.27 65.30 64.79 64.87 64.74 64.08 64.89 65.78 66.41 67.77
66.10 66.78 67.99 67.61 67.21 67.24 66.62 66.11 65.54 64.25 63.26 62.49 61.74 64.14 63.11 63.31 63.83 64.00 64.35 66.04 67.86 67.56 66.98 66.77 66.11 65.48 65.24 65.08 65.00 64.68 64.95 65.07 65.07 64.59 64.85 64.71 64.00 64.67 64.33 63.65 64.13 64.98 65.93
67.46 67.58 67.69 67.41 67.21 67.38 65.90 65.50 64.31 63.34 62.74 63.49 63.56 65.42 63.60 62.63 63.00 62.69 64.35 64.33 64.84 66.67 67.09 66.38 65.80 65.23 64.88 64.24 64.48 64.35 63.93 64.60 64.56 64.63 64.03 64.43 63.83 64.03 63.96 63.84 63.70 63.71 63.85
67.37 66.80 66.13 66.35 66.58 65.69 65.91 65.06 63.46 62.17 61.94 62.48 64.10 64.40 62.85 63.72 62.04 62.49 64.11 64.26 62.80 63.19 65.05 66.40 65.73 65.31 64.68 64.37 64.24 63.84 63.87 63.66 64.18 64.24 64.07 63.65 63.89 63.22 63.56 63.64 63.24 63.35 63.52
67.70 66.38 65.12 65.64 66.06 65.22 64.81 64.45 63.45 62.62 61.94 62.46 64.01 62.27 61.68 62.47 62.76 63.23 62.68 62.69 62.31 61.90 61.61 65.22 65.32 65.51 64.34 64.55 64.36 63.44 63.62 63.35 62.99 63.87 63.65 63.66 63.39 63.36 62.97 62.98 62.87 62.91 63.08
67.56 66.07 66.07 66.26 65.52 64.30 63.01 63.87 63.66 62.99 62.35 62.90 61.99 60.15 60.17 60.82 60.87 61.86 61.69 62.36 62.50 61.65 61.38 62.62 61.11 62.14 64.93 64.03 64.15 63.42 63.23 62.80 62.43 62.86 62.99 63.23 63.05 62.71 62.74 62.73 62.77 63.09 62.23
64.19 64.90 64.96 65.11 64.62 63.80 63.63 63.88 62.06 62.20 59.98 61.36 58.93 58.04 58.57 57.36 58.05 59.89 60.55 61.84 62.32 62.83 61.04 60.60 61.58 60.65 61.22 64.75 64.15 63.52 63.11 63.05 62.59 62.24 62.38 62.43 62.57 62.23 62.33 62.36 61.71 62.62 62.71
64.00 64.60 64.73 63.99 64.58 62.78 62.07 62.66 61.18 59.38 59.02 59.65 56.95 56.33 54.14 55.31 57.29 58.94 60.41 60.98 60.61 62.35 60.50 61.87 61.49 61.43 60.89 58.99 60.22 63.67 63.40 62.45 62.06 61.94 62.00 61.87 61.87 61.56 61.64 61.50 61.80 61.50 61.90
61.65 62.77 65.18 64.26 64.38 64.06 62.57 62.76 61.31 59.25 57.53 57.29 56.91 54.46 50.82 50.96 56.52 57.84 59.35 59.86 59.89 60.37 60.49 60.62 59.75 60.69 60.00 59.54 59.22 61.01 62.23 62.54 61.64 61.34 61.17 61.62 61.75 61.32 61.48 60.71 60.88 61.28 61.22
61.57 61.57 61.13 60.23 60.93 62.88 63.43 62.14 61.41 59.11 58.32 56.50 56.89 56.85 54.18 54.84 53.38 52.30 57.20 58.39 57.57 57.09 57.50 59.12 59.64 59.85 59.64 59.48 60.35 61.07 61.71 61.50 61.34 60.81 60.88 60.86 60.88 60.84 60.99 60.57 60.37 59.93 61.20
60.19 60.57 60.87 61.12 62.00 63.77 63.07 61.43 59.74 59.22 58.36 57.39 56.19 54.60 53.01 52.81 52.75 50.87 52.69 53.96 54.46 54.50 54.59 54.81 55.55 56.57 57.24 58.31 59.31 60.15 60.41 60.64 60.62 60.49 60.67 60.45 60.57 60.33 60.61 60.37 60.24 59.38 59.13
58.93 60.44 62.24 63.50 64.22 63.87 62.80 61.68 60.38 59.52 58.93 57.78 56.73 55.74 54.06 53.09 52.24 51.48 51.72 54.02 51.34 51.49 52.11 52.34 52.28 53.44 54.89 55.86 59.03 60.06 59.90 59.62 60.15 60.58 60.78 60.79 60.54 60.17 59.60 59.65 59.41 58.87 58.64
59.30 61.31 62.11 63.57 63.59 63.13 62.83 61.55 60.61 59.73 58.72 56.91 55.53 55.02 55.51 55.49 55.34 53.79 53.57 53.17 52.58 52.71 51.31 50.76 50.89 51.81 52.62 53.89 56.02 59.42 59.65 58.89 59.26 59.08 58.99 58.64 58.79 59.84 59.20 58.76 58.88 58.34 58.02
59.25 61.16 61.66 61.85 62.76 63.11 62.07 60.80 59.44 57.98 57.64 56.72 55.61 55.39 54.96 55.06 55.32 54.57 52.84 52.65 51.04 49.83 48.40 48.03 50.13 49.58 50.62 53.01 57.16 59.30 59.15 59.64 59.28 58.25 57.70 57.42 57.29 58.06 58.46 58.60 57.62 57.70 57.07
59.93 60.56 60.24 59.95 61.68 61.59 60.86 59.53 58.42 57.58 57.47 56.71 55.42 55.64 55.46 54.85 55.11 54.56 54.44 52.94 50.67 48.75 47.43 46.58 47.97 48.45 49.46 51.54 55.15 54.81 55.50 57.40 57.76 57.55 57.49 57.36 57.40 58.29 58.09 58.34 57.35 56.35 57.29
58.88 57.63 60.18 60.31 61.55 60.92 60.08 59.15 58.13 57.61 57.01 56.57 56.94 56.27 55.53 54.37 53.91 54.06 53.49 52.74 50.51 49.69 45.57 47.57 45.86 46.72 47.91 49.52 51.80 51.26 52.74 54.31 55.65 55.40 54.71 54.43 54.74 55.32 55.51 55.44 56.15 56.40 55.92
58.04 58.32 59.91 60.79 60.29 59.79 59.39 58.92 58.01 57.58 56.72 56.45 55.96 55.55 54.61 54.00 53.45 52.43 51.83 52.43 50.51 49.55 44.82 45.60 46.06 45.92 45.13 46.31 47.55 48.31 49.05 49.42 51.31 53.43 53.39 53.24 53.08 53.19 53.61 53.43 53.57 53.67 53.69
56.33 56.99 59.54 59.64 59.49 59.22 59.10 58.47 57.77 57.44 56.89 56.64 56.44 55.12 55.08 54.52 52.04 51.07 51.48 50.87 49.52 49.23 46.75 43.53 44.76 43.41 43.01 43.99 44.28 43.28 43.87 44.29 46.65 50.97 50.86 50.35 50.28 50.60 50.46 50.66 50.69 50.30 50.27
56.20 57.21 58.86 59.02 58.72 58.62 58.60 58.25 57.94 57.53 57.90 57.49 56.89 56.00 55.33 54.38 52.27 49.98 49.62 48.67 48.28 47.77 47.01 44.81 43.31 44.72 43.97 43.65 38.70 35.77 35.32 35.47 40.58 47.24 47.80 48.06 48.27 48.60 48.58 48.37 48.08 48.15 48.40
56.62 58.84 59.38 59.02 58.74 58.47 57.93 57.40 57.57 57.09 56.88 56.81 56.49 55.64 53.98 52.65 50.92 49.11 47.91 47.23 47.03 46.23 45.75 44.31 43.19 42.99 43.44 41.89 36.11 32.96 31.70 32.11 32.62 37.74 42.24 45.22 46.03 46.30 46.08 45.53 45.24 44.62 44.31
58.60 59.29 58.99 58.72 58.30 57.57 57.07 56.47 56.08 55.26 54.59 53.99 53.80 53.25 52.61 52.58 52.54 50.54 47.74 46.66 45.95 44.17 41.46 38.94 35.18 34.38 34.12 32.94 33.77 32.22 30.30 30.14 30.20 30.39 33.36 34.79 36.08 36.19 38.25 41.99 41.89 42.29 41.99
58.35 58.49 58.12 57.65 57.14 56.70 56.51 55.92 55.01 53.95 53.39 52.67 52.06 52.59 52.75 52.90 52.35 52.18 50.85 49.03 43.16 37.50 34.21 33.04 31.36 30.66 29.29 29.91 30.87 31.00 30.51 27.76 26.21 30.27 29.55 31.33 33.49 34.19 36.03 37.85 41.50 40.78 40.77
57.82 57.57 57.23 56.41 55.25 55.13 55.94 55.03 53.70 51.32 50.15 49.41 47.94 46.57 45.99 46.50 46.21 44.97 47.09 46.46 45.03 43.81 39.69 32.38 29.68 28.70 28.49 29.33 29.00 26.22 25.21 24.51 23.92 26.42 27.26 26.80 28.76 30.78 34.60 37.75 40.52 40.09 39.67
56.92 55.76 55.00 54.39 53.69 53.72 54.23 52.48 50.63 46.91 45.51 43.46 42.38 41.10 40.25 38.59 38.87 37.24 36.21 35.50 35.19 35.24 35.56 35.27 31.19 29.18 29.05 30.02 30.35 27.63 26.35 25.17 26.03 27.09 26.69 26.16 28.98 30.15 32.10 30.47 38.54 38.67 39.21
55.08 54.26 53.72 52.71 51.63 51.09 52.19 50.11 46.25 43.40 42.53 42.27 42.38 41.75 39.64 39.04 43.51 42.79 36.81 34.98 34.63 36.32 42.60 43.25 42.63 42.37 42.05 40.25 35.57 29.87 27.21 25.78 24.14 24.41 25.58 24.46 24.19 28.84 27.35 25.82 28.37 36.76 36.98
53.17 52.98 51.64 51.01 50.86 49.00 50.18 48.89 45.67 43.59 41.83 41.54 42.12 41.86 44.21 41.74 43.40 40.68 32.73 30.81 27.54 25.86 28.26 28.08 28.40 31.11 32.75 35.60 35.66 26.86 25.44 24.80 24.09 23.36 26.15 24.51 23.29 23.29 22.74 24.88 25.48 26.34 26.75

GFSMA_sfc_wetblb_201.txt.gz
Wetbulb
65.79 64.93 66.47 67.55 68.31 67.12 67.03 66.56 65.85 65.41 64.26 63.06 62.33 63.23 61.81 62.85 63.52 65.20 65.03 68.10 68.09 67.30 66.69 66.27 65.67 65.84 65.30 65.05 65.00 64.98 64.88 64.98 64.99 65.31 65.14 64.98 64.83 64.71 64.54 64.19 64.41 65.41 67.01
66.33 65.10 65.45 66.26 67.11 65.52 65.26 65.69 65.21 64.73 63.70 62.34 61.07 62.87 61.97 63.26 64.19 64.53 64.75 64.96 67.75 67.21 66.48 66.15 65.54 65.25 64.80 65.20 64.89 64.45 64.44 64.47 64.33 64.60 64.78 64.31 64.64 64.75 64.32 63.96 64.48 64.50 64.83
66.73 65.89 66.14 66.84 66.66 66.25 66.54 65.51 64.68 63.53 62.68 62.75 60.94 63.31 62.41 62.38 62.90 63.61 63.87 64.40 65.04 66.81 66.68 65.95 65.23 64.56 64.16 65.12 64.37 64.25 64.19 63.90 64.26 63.96 64.45 64.33 64.10 63.63 64.17 63.37 65.08 65.39 64.03
67.28 66.27 65.69 66.62 66.44 66.37 65.99 65.27 63.65 62.68 61.66 61.51 61.40 63.43 62.06 63.16 63.06 62.89 64.05 63.05 62.90 62.39 64.76 65.85 64.96 64.46 64.48 64.70 64.11 64.19 63.74 63.50 63.97 63.88 63.63 63.93 63.56 63.35 63.97 63.67 63.64 64.58 65.82
67.91 66.43 65.69 66.09 66.14 65.46 65.44 64.94 63.62 61.58 60.60 61.09 62.21 61.28 62.79 62.82 62.77 63.44 62.42 61.90 61.64 61.41 61.14 65.22 64.66 64.79 64.14 64.29 63.97 64.15 63.52 63.14 63.31 63.38 63.28 63.01 62.98 63.33 63.16 63.69 63.53 63.82 64.00
67.57 65.94 65.72 64.95 64.96 64.25 63.54 63.59 63.19 62.71 60.72 61.65 62.36 60.55 61.16 61.77 61.87 61.50 61.93 61.64 61.07 61.25 61.01 61.96 60.77 60.94 64.39 63.44 63.43 63.32 62.91 63.21 62.89 63.07 62.68 62.30 62.56 63.13 62.80 63.11 63.13 63.23 62.84
66.21 65.43 65.57 65.83 65.62 64.57 64.11 63.94 62.58 62.77 61.13 60.45 59.06 58.59 58.74 59.42 59.04 59.70 59.58 59.68 60.84 61.76 60.28 61.69 61.71 61.49 61.84 63.34 63.42 63.00 63.19 62.68 62.14 62.39 62.66 62.20 62.11 62.26 62.37 62.38 62.11 62.47 62.74
64.30 64.80 64.39 64.35 63.89 62.52 62.85 62.69 62.03 60.70 59.40 60.46 58.33 56.51 55.47 56.84 57.67 58.04 58.27 59.61 60.68 61.80 60.31 61.49 61.22 61.10 60.54 59.99 61.11 63.17 63.05 61.99 61.94 61.59 62.07 62.07 62.12 61.50 61.72 61.99 62.01 61.88 62.01
63.17 63.96 64.09 64.19 63.15 62.80 61.90 62.32 61.85 60.62 58.62 60.32 59.28 55.56 51.32 52.09 55.04 56.57 57.87 59.13 59.48 59.57 60.15 60.54 60.49 60.19 59.86 59.35 59.30 60.55 62.02 62.14 62.29 60.80 60.72 60.89 61.37 61.41 61.40 60.80 61.12 61.67 61.49
61.37 62.52 64.08 63.91 63.47 62.69 61.55 62.13 62.34 60.68 60.60 59.02 57.23 56.05 54.75 54.78 50.82 52.11 57.10 56.15 56.12 55.59 55.61 56.53 56.89 57.79 58.63 59.12 59.89 60.96 60.15 61.00 61.48 61.87 60.78 60.52 60.61 60.51 60.72 60.39 60.18 60.30 60.74
60.74 61.15 62.25 60.80 59.82 60.13 61.31 62.07 60.94 59.66 60.28 59.25 56.53 53.25 52.71 52.03 51.09 50.39 51.38 53.01 53.31 53.33 53.28 53.33 54.04 54.69 55.46 56.70 58.70 59.93 60.63 60.59 59.83 60.75 60.98 61.78 61.68 60.75 60.21 59.99 60.02 59.55 59.85
59.28 59.63 60.17 59.50 60.16 61.33 61.67 61.67 61.19 60.16 59.07 58.30 56.34 54.41 53.79 52.34 50.69 50.24 52.31 52.43 50.59 50.79 51.48 51.62 51.35 52.16 53.29 54.34 56.98 59.87 60.09 60.00 60.15 60.32 60.66 60.69 60.73 61.04 60.65 59.61 59.56 59.02 59.60
58.90 57.81 60.46 61.69 61.55 62.17 62.56 61.86 60.54 60.17 59.06 58.21 56.02 54.60 54.78 54.26 53.53 52.06 53.18 52.18 51.02 51.77 50.92 50.39 50.19 50.72 51.73 53.30 56.22 59.02 59.75 59.13 59.16 59.34 58.68 58.18 58.14 58.56 59.66 59.86 58.82 58.41 58.70
59.74 58.88 60.67 62.23 62.67 62.52 61.84 61.32 60.26 59.38 58.07 56.78 55.55 55.66 54.58 54.42 54.28 54.83 54.11 52.76 49.45 48.91 48.01 47.54 49.58 48.91 50.44 54.08 57.02 58.03 58.32 59.13 58.53 57.98 57.66 57.29 57.56 58.42 58.94 58.99 59.16 57.58 58.30
59.63 61.04 61.39 59.93 62.19 62.25 61.28 60.38 58.80 57.86 57.38 56.39 54.98 54.47 54.45 53.50 53.97 53.56 55.17 53.44 51.31 47.94 46.91 46.15 47.79 48.20 49.52 51.85 53.90 54.15 55.11 56.46 56.28 55.66 56.34 56.91 57.20 57.45 57.64 58.05 57.98 58.34 57.97
59.48 59.77 60.02 58.52 61.61 60.63 59.35 58.86 58.05 57.80 56.73 56.16 55.78 54.69 53.71 53.09 52.98 53.39 53.53 52.79 50.80 49.31 45.14 47.00 45.26 46.33 48.01 49.31 50.70 49.88 51.97 53.97 54.93 54.79 54.22 54.17 54.81 55.45 55.92 56.19 56.24 55.85 55.35
57.56 57.65 58.96 58.28 60.01 59.85 59.38 58.43 57.66 57.28 56.56 55.61 54.88 54.27 52.87 53.12 51.98 51.53 51.42 50.78 50.65 49.40 44.53 44.92 45.50 45.29 44.63 45.07 44.91 45.17 46.31 49.03 50.23 52.29 52.35 52.04 52.08 52.45 52.65 52.49 52.69 52.73 52.96
56.34 56.84 59.74 59.49 59.64 59.06 58.74 57.91 57.12 57.29 55.89 54.56 54.39 54.22 53.22 52.31 50.10 49.78 49.78 49.69 48.97 49.00 46.30 42.93 43.70 42.66 42.46 42.06 40.50 39.11 40.82 43.36 45.55 49.19 49.96 50.22 49.75 49.66 49.41 49.39 49.89 49.91 49.52
55.65 57.01 59.20 59.23 59.34 58.71 58.50 58.10 57.53 56.93 55.84 55.17 55.03 53.93 52.98 51.01 48.81 48.37 48.96 48.45 47.95 47.63 46.70 43.82 41.66 43.47 42.88 40.82 37.21 35.66 33.56 34.54 39.50 46.24 47.15 47.60 47.27 46.77 46.70 46.62 46.14 46.01 46.14
56.34 57.34 58.87 58.68 58.88 58.69 58.28 57.65 57.43 56.93 56.66 56.21 55.29 54.19 52.83 50.58 48.48 47.76 48.04 47.34 46.88 45.91 44.99 43.04 41.68 41.09 40.07 36.97 33.73 31.58 30.89 30.96 31.82 36.63 40.72 42.86 43.87 44.44 44.06 43.96 43.63 42.97 42.64
56.54 58.71 58.50 58.32 58.23 57.89 57.74 57.34 56.85 55.90 54.67 53.51 52.96 52.22 51.71 51.78 51.78 50.20 47.66 46.80 45.75 44.00 43.61 39.79 34.53 34.00 33.63 32.87 30.54 29.82 28.26 28.39 29.16 29.35 32.93 33.73 34.43 34.75 37.64 40.62 40.70 41.47 41.15
57.30 58.60 57.94 57.67 57.02 57.02 56.80 56.16 55.30 54.16 53.55 52.85 51.93 52.13 52.37 52.55 51.95 51.71 50.35 47.82 43.30 38.85 34.86 32.78 31.06 30.55 28.21 29.27 29.62 29.58 28.69 25.69 26.48 29.57 29.19 32.13 32.49 31.15 33.02 36.42 41.21 40.40 40.02
57.50 57.78 57.16 56.53 55.55 55.80 56.50 56.00 54.78 52.83 51.35 49.93 48.66 47.98 47.48 47.70 46.98 45.53 47.25 46.65 45.49 44.26 39.99 32.09 29.37 27.81 27.81 27.97 26.22 24.45 23.82 24.03 23.83 25.82 26.77 27.73 28.26 27.68 31.76 34.46 39.43 40.11 40.27
57.27 56.36 55.33 55.11 54.80 54.82 55.22 54.05 51.63 47.37 45.40 44.20 42.75 41.41 39.75 38.36 38.32 36.56 35.20 34.38 34.01 33.32 32.91 33.20 29.83 28.78 29.50 28.59 26.86 26.25 24.72 23.98 24.69 25.78 25.74 25.23 25.73 25.39 26.83 26.98 37.70 37.92 37.88
54.81 54.56 54.08 53.14 52.21 51.35 52.09 49.49 46.16 43.59 42.16 41.06 40.36 40.21 39.45 38.58 43.23 42.36 36.90 36.03 35.79 37.38 43.30 44.09 43.23 41.95 40.19 38.39 33.92 28.77 25.81 24.91 23.69 23.91 24.83 24.31 23.36 26.19 25.38 24.52 26.64 36.16 36.49
53.42 52.77 51.77 51.51 50.90 48.06 49.78 48.61 45.66 43.07 41.04 40.26 40.55 40.51 43.50 41.33 43.48 40.91 33.32 31.25 27.85 25.57 28.22 27.76 26.76 29.68 31.18 34.36 34.69 25.85 25.90 24.49 23.70 23.04 25.66 24.03 22.82 22.90 22.59 24.58 24.67 24.87 25.84

GFSMA_sfc_wetblb_204.txt.gz
Wetbulb
68.47 67.07 66.56 66.36 68.01 67.87 67.79 66.66 65.96 65.10 64.53 63.78 63.07 63.27 63.04 60.78 63.92 64.98 65.13 67.57 67.62 67.04 66.82 66.37 66.27 66.04 65.80 65.60 65.44 65.54 65.10 64.86 64.90 65.09 64.83 65.11 65.24 64.54 65.62 66.36 65.73 65.53 66.36
68.24 66.28 65.16 65.54 66.32 67.14 66.85 65.58 65.54 64.67 63.80 63.31 61.87 61.62 62.54 62.72 64.19 65.04 65.01 65.69 67.63 67.62 66.93 66.12 65.88 65.29 65.91 65.13 65.06 64.70 64.82 64.50 64.73 64.68 64.66 64.24 64.72 64.59 64.61 65.53 67.04 66.45 65.29
66.49 65.51 65.20 64.87 65.57 66.59 66.32 65.31 64.50 64.05 63.03 62.57 61.17 61.66 62.11 62.34 64.03 64.31 64.51 64.56 64.33 67.16 67.10 65.81 65.26 65.36 65.57 64.93 64.59 64.25 64.57 64.42 64.56 63.73 63.77 63.90 64.05 64.35 64.29 64.38 64.51 65.83 67.00
66.59 65.42 65.00 65.53 66.28 66.18 65.92 65.03 64.00 63.53 62.48 61.54 60.71 62.69 61.96 62.49 63.57 63.80 64.31 63.70 63.04 62.33 64.93 66.19 65.06 65.16 65.33 64.56 64.72 63.60 63.91 63.94 64.03 63.51 63.63 63.48 63.59 63.93 63.84 63.82 63.72 64.06 64.55
66.49 65.75 65.55 65.72 65.55 65.90 65.71 65.25 63.70 63.06 62.55 62.07 60.93 60.92 61.48 61.63 62.98 64.26 63.71 62.63 61.96 61.07 61.23 64.99 64.95 65.01 64.58 64.09 64.33 64.15 63.89 63.78 63.66 63.50 62.65 63.15 63.20 63.27 63.61 63.35 63.54 62.94 63.29
65.36 66.47 66.07 65.40 64.44 65.33 64.71 64.17 63.09 63.04 62.18 62.22 63.20 60.29 60.98 62.21 63.00 62.79 62.36 61.81 61.18 61.06 60.95 61.20 61.23 61.48 64.37 63.30 63.79 63.75 63.87 63.47 63.01 63.17 62.38 62.08 62.71 63.07 63.29 63.18 63.12 63.17 62.65
63.77 65.26 66.05 64.79 64.71 64.13 64.55 64.61 63.14 62.39 61.75 61.28 59.11 58.67 59.26 61.14 61.31 61.45 60.93 60.48 60.56 60.47 59.82 61.79 62.06 61.66 61.14 62.85 63.13 63.05 63.35 63.57 62.62 62.71 62.44 62.18 62.31 62.32 62.47 62.85 62.65 62.65 62.65
61.97 64.38 65.50 64.73 64.25 63.79 62.89 63.42 62.86 61.74 60.84 60.79 57.95 57.70 55.50 57.47 58.93 59.47 59.81 59.58 60.23 60.72 59.79 60.47 61.03 60.53 60.20 60.16 61.13 62.77 63.15 63.29 62.91 62.04 62.08 62.08 61.73 61.65 61.29 62.17 61.90 61.93 61.92
61.63 62.86 64.20 64.40 63.86 63.70 62.48 63.36 63.03 61.39 59.47 59.98 59.73 57.32 54.09 53.76 55.49 57.69 57.37 58.05 57.55 57.61 58.67 59.29 59.16 59.21 59.35 59.54 60.11 59.99 61.05 61.30 62.50 62.80 61.52 60.89 61.02 61.11 60.82 60.95 61.13 61.39 61.37
61.68 61.85 63.22 64.03 63.51 63.27 62.00 62.53 62.42 60.85 60.15 58.56 58.21 58.18 56.44 56.75 53.39 53.11 55.58 54.81 54.90 54.21 54.30 55.15 55.56 56.09 56.79 58.06 59.60 60.83 61.22 61.25 61.04 61.65 61.76 61.22 61.75 61.32 60.89 60.62 60.38 61.15 61.00
62.12 61.89 61.80 63.07 63.36 62.22 61.18 61.89 61.40 60.12 60.57 59.82 58.53 54.90 54.46 53.71 51.62 52.62 51.13 51.86 52.02 52.53 52.57 52.55 53.05 53.50 54.31 55.38 57.44 59.38 60.43 60.31 60.66 60.69 61.53 61.81 61.92 61.79 61.66 60.40 60.05 60.62 60.42
60.56 61.38 61.21 62.43 61.79 60.68 60.43 60.90 60.10 59.47 59.92 60.39 59.01 57.02 54.92 52.97 51.06 51.05 52.21 51.93 49.73 50.14 50.84 51.02 50.89 51.78 52.92 53.97 56.99 59.33 60.38 60.16 60.16 60.60 59.94 59.53 59.59 59.83 60.87 60.76 59.74 59.79 59.82
58.03 60.16 60.55 60.34 59.21 59.72 60.22 60.22 59.73 59.29 59.39 59.17 58.11 56.73 55.42 54.50 52.74 52.35 53.05 51.07 50.22 51.20 50.30 49.82 49.75 50.42 52.31 55.54 58.36 59.18 60.04 59.87 59.46 58.92 58.35 58.09 58.29 58.72 58.88 59.51 59.79 59.44 59.07
57.99 60.20 59.99 60.78 60.10 60.92 61.22 60.33 59.85 60.02 59.57 58.37 56.39 55.90 55.37 54.45 54.36 54.68 52.69 51.03 48.38 48.37 47.52 48.28 49.17 48.63 51.32 54.00 56.49 56.94 56.39 57.59 58.09 58.46 58.77 58.68 58.46 58.80 59.23 59.29 59.12 59.21 58.99
58.32 58.78 60.01 60.57 61.76 62.02 61.08 60.11 59.33 58.57 58.16 57.20 56.16 55.46 54.69 53.64 54.49 53.87 54.39 53.08 49.90 47.19 46.28 45.54 47.41 47.84 50.05 51.25 53.80 53.79 54.12 55.84 55.95 55.43 55.51 56.25 57.19 57.73 58.09 57.97 57.95 57.78 57.87
58.17 58.56 60.01 60.37 61.73 61.45 60.60 58.84 57.92 57.67 56.43 56.12 55.75 54.47 53.69 53.04 53.32 53.78 53.46 51.14 52.04 47.48 44.27 46.24 44.75 46.05 47.23 47.04 48.72 49.28 51.13 52.94 54.05 54.02 53.30 53.26 53.98 54.42 54.36 54.78 55.15 55.26 55.36
57.06 57.81 58.75 59.30 60.04 58.62 58.68 58.07 57.72 56.97 56.21 55.66 55.22 53.95 52.59 52.81 52.09 51.72 50.74 49.70 48.42 47.85 43.57 44.19 44.74 44.88 42.88 42.28 42.46 43.98 45.93 46.98 50.03 51.80 51.54 51.05 50.69 50.62 50.67 51.26 51.52 51.38 51.50
56.26 57.23 59.29 58.70 59.82 58.60 57.51 57.16 57.12 56.78 55.74 54.75 53.99 52.81 51.22 51.71 49.86 49.46 49.19 47.71 47.48 47.66 45.51 42.06 42.85 41.48 39.76 39.92 39.02 37.80 39.29 42.29 45.37 48.96 48.65 47.67 47.62 47.89 47.54 47.35 47.22 47.48 47.57
55.84 56.72 58.10 58.97 58.87 58.46 57.65 57.70 57.20 56.41 55.76 55.34 54.17 52.01 50.31 49.67 48.51 48.18 48.16 48.37 47.74 47.11 45.89 42.65 40.88 42.13 40.29 39.84 36.58 35.35 34.26 35.79 38.98 44.41 45.59 46.31 45.47 44.75 44.58 44.49 43.94 43.81 44.12
56.24 56.47 56.50 58.91 58.97 58.50 57.94 57.58 56.82 55.82 55.10 54.19 53.43 51.05 49.35 48.29 47.75 47.46 47.57 47.21 46.58 44.89 43.71 41.95 40.81 38.86 36.38 34.70 34.09 31.97 31.09 31.01 31.67 35.74 39.89 42.06 43.09 43.63 43.26 42.62 42.64 41.94 41.76
54.48 56.88 58.03 58.33 58.89 58.10 57.63 57.09 56.60 55.36 53.73 51.87 51.03 50.61 49.65 50.37 51.27 49.70 47.40 46.76 45.70 44.09 42.28 39.93 34.86 33.44 32.60 31.11 29.53 29.28 28.41 29.64 29.48 29.43 32.02 32.81 32.97 32.92 36.58 39.63 40.35 40.82 40.79
53.35 57.81 57.79 57.34 57.19 57.52 57.13 56.42 55.01 53.47 52.58 51.79 51.23 51.83 52.06 52.40 51.84 52.12 51.02 49.37 45.14 39.97 36.06 34.01 31.98 30.84 28.41 28.12 28.51 28.18 27.63 26.22 28.64 30.86 29.40 29.41 31.68 29.38 32.00 35.98 41.08 40.77 40.13
52.18 57.19 56.83 56.46 56.03 56.22 56.67 56.21 54.75 52.66 51.23 50.03 49.29 48.68 48.09 48.42 47.27 46.03 47.71 47.38 46.52 45.64 41.52 33.20 30.65 28.19 27.71 28.18 26.77 25.06 24.35 24.73 24.80 26.49 27.98 26.42 27.20 26.49 28.65 33.18 38.62 38.76 38.31
52.03 56.33 55.55 55.42 55.18 55.35 55.52 54.25 51.71 47.38 44.84 44.00 42.45 40.67 39.46 38.57 38.93 36.23 34.83 33.96 33.51 32.90 32.54 32.43 29.56 27.79 27.33 26.33 26.71 26.25 24.48 23.85 24.80 25.93 26.40 24.92 25.40 26.35 26.42 26.60 36.96 37.24 37.38
51.09 55.33 55.02 54.47 53.32 51.77 52.02 49.74 46.05 43.02 41.26 40.74 41.00 40.79 39.98 39.90 43.85 42.80 36.66 34.66 33.17 36.22 43.09 43.28 41.94 41.43 40.26 37.70 32.04 27.55 25.64 25.27 23.96 24.30 25.03 25.14 23.93 26.03 25.10 25.33 27.09 35.27 36.74
54.24 54.13 52.34 51.62 50.83 48.52 50.08 48.44 44.90 42.51 40.31 40.08 40.94 41.50 44.02 41.63 43.41 41.04 33.31 32.12 28.31 26.03 28.70 27.57 25.48 28.65 29.58 33.23 34.49 26.71 25.89 24.54 24.02 23.69 26.35 24.49 23.63 24.05 23.78 25.95 25.88 25.80 27.16

GFSMA_sfc_wetblb_207.txt.gz
Wetbulb
71.97 71.43 71.71 71.65 71.33 70.72 71.27 71.61 71.46 70.90 70.11 69.08 68.59 68.22 67.87 67.42 67.11 67.45 66.37 67.58 67.34 67.33 66.80 66.28 65.61 65.66 65.40 65.19 65.33 65.48 65.41 65.19 65.15 64.88 64.56 65.02 64.82 64.80 64.60 65.37 65.98 67.67 67.25
71.45 70.88 69.95 70.52 71.04 71.10 70.51 70.58 71.07 70.30 69.53 68.90 67.81 67.46 67.56 67.85 67.20 67.51 66.64 67.09 66.78 66.75 66.63 65.94 65.31 65.45 65.31 65.24 64.67 64.87 65.06 64.69 64.61 64.32 64.20 64.27 64.36 64.41 64.35 63.72 64.77 65.75 67.55
70.55 70.44 69.76 69.49 70.32 70.92 70.58 69.97 69.55 69.30 68.56 68.10 67.20 66.07 65.93 66.91 67.07 67.11 66.07 66.05 66.87 66.82 66.67 65.85 65.23 65.36 64.87 64.83 64.70 64.24 64.26 64.51 63.69 63.80 64.01 63.78 64.05 64.29 64.28 64.00 63.68 64.91 65.92
69.32 68.40 68.54 69.15 69.91 68.52 68.92 68.75 68.25 66.31 66.66 66.83 66.51 65.87 65.75 66.26 66.81 66.87 66.35 66.03 65.29 64.83 66.41 66.41 65.06 64.83 64.60 64.46 64.02 63.86 63.72 64.01 63.60 63.26 63.43 63.56 63.84 63.89 63.99 63.95 63.59 63.61 64.72
66.80 67.08 67.09 68.55 69.30 68.80 68.18 67.36 66.21 66.90 64.43 63.89 65.13 65.15 65.74 65.53 65.63 65.96 65.15 64.33 63.51 64.39 66.18 65.59 64.22 64.36 64.07 64.45 63.89 64.24 63.73 63.40 63.33 62.97 62.74 62.91 63.50 63.61 63.43 63.30 63.39 63.35 63.23
64.26 65.55 67.17 67.81 68.00 66.58 65.96 66.23 65.66 65.45 64.56 64.11 64.00 63.19 63.64 64.57 65.78 65.53 65.40 63.39 63.47 63.90 65.52 65.14 63.55 63.98 63.89 63.69 63.52 63.73 63.63 63.38 63.29 62.78 62.71 62.82 62.84 63.25 63.13 62.93 63.03 62.85 63.14
62.31 63.73 65.36 66.75 66.99 65.96 65.19 65.27 64.48 63.34 62.66 64.50 62.05 60.66 60.93 63.61 64.15 64.15 63.15 62.31 62.42 63.05 64.54 63.34 63.15 63.18 62.98 63.23 63.77 63.21 64.10 63.26 62.91 62.60 62.70 62.25 62.22 61.88 62.58 62.34 62.28 62.43 62.92
61.48 61.10 63.30 63.96 64.74 64.86 64.57 65.00 65.90 63.33 63.37 62.46 61.47 59.57 56.25 57.96 59.29 61.16 61.09 61.38 62.10 62.86 62.73 63.28 61.50 61.06 61.47 62.23 62.52 62.78 62.77 63.15 62.95 62.12 61.90 61.77 61.74 61.53 61.45 61.89 62.10 62.02 62.00
60.64 61.69 61.84 62.92 63.69 64.65 63.96 64.68 65.46 64.65 62.17 62.41 63.22 61.10 55.51 54.76 55.95 57.58 57.45 57.91 58.25 58.83 59.06 59.41 59.50 59.92 60.63 61.84 61.41 60.68 61.28 61.92 62.43 62.84 62.07 61.70 62.03 61.92 61.35 61.10 61.78 61.73 61.30
59.66 61.25 62.75 62.60 62.38 63.51 64.20 64.31 64.70 65.38 64.65 60.04 60.46 60.70 61.40 60.44 56.09 52.79 54.36 53.84 54.84 54.68 55.79 56.20 56.22 56.81 57.74 59.02 59.93 60.59 61.14 61.03 61.28 61.72 62.25 62.46 62.37 61.66 61.28 60.84 61.36 60.96 60.98
60.03 61.39 62.36 62.43 62.24 62.66 63.62 64.08 63.69 63.25 65.02 62.68 61.81 58.54 59.23 58.40 58.88 55.87 50.58 50.65 51.63 52.33 52.93 53.40 54.04 54.95 55.74 56.95 59.00 59.94 60.32 60.51 60.49 60.73 61.56 61.37 61.17 61.17 61.91 60.60 60.69 60.46 60.47
58.57 59.82 61.40 61.77 62.40 63.12 63.41 62.90 62.90 62.46 63.55 63.86 63.42 60.88 59.22 56.56 53.85 54.66 53.05 52.23 49.30 49.78 51.32 51.50 51.70 52.82 54.96 57.13 58.06 60.04 60.57 60.62 60.54 59.78 59.28 59.35 59.76 59.84 60.55 60.99 60.13 60.25 59.71
56.41 59.12 60.19 60.57 61.38 62.63 62.56 62.82 62.20 62.11 63.46 63.31 62.48 61.17 60.89 57.97 56.40 56.99 55.48 51.37 49.96 50.93 50.17 50.06 49.96 51.38 54.06 56.73 58.46 59.36 59.81 59.52 59.31 59.24 59.58 59.58 59.84 60.26 60.15 60.13 60.34 60.05 59.49
55.73 57.53 59.30 60.15 60.88 61.56 61.76 62.04 62.02 62.51 63.14 63.79 61.60 61.25 59.16 56.82 57.49 57.27 54.71 53.32 48.87 48.35 48.12 48.05 49.36 49.79 52.38 55.16 56.49 56.89 56.34 57.28 57.40 57.70 57.90 58.20 58.57 58.88 59.28 59.77 59.92 60.10 59.62
55.09 56.78 58.22 58.84 60.21 61.06 61.36 61.67 60.90 60.90 61.70 62.48 61.39 60.82 57.94 57.64 58.68 57.63 57.02 55.98 52.70 47.81 46.46 45.48 47.27 48.10 48.72 51.40 53.33 53.63 53.94 55.24 55.38 55.10 55.07 54.95 55.10 55.91 56.89 57.46 57.25 56.64 56.43
53.23 55.41 57.18 58.39 60.02 60.98 60.97 61.33 60.42 60.36 60.49 60.57 59.88 57.40 57.45 56.75 57.29 57.73 57.15 56.45 56.34 51.80 45.07 45.90 44.62 45.11 46.08 46.37 48.55 49.28 51.59 52.42 53.11 52.92 51.99 51.70 51.98 52.25 52.43 52.79 53.21 53.36 53.42
52.37 54.99 56.63 58.79 60.36 60.87 60.64 59.72 59.60 59.61 59.18 58.12 57.15 55.83 55.77 56.61 56.37 56.42 56.19 55.13 52.44 50.97 43.43 43.75 44.51 43.91 42.06 42.08 42.96 46.17 48.64 48.81 48.62 49.91 49.61 49.31 48.98 48.84 48.83 48.79 49.01 49.30 49.41
51.68 54.79 57.24 59.12 59.24 58.46 58.78 58.53 58.31 58.12 56.49 55.57 54.87 54.56 54.78 55.41 54.74 54.69 53.70 52.23 51.90 49.81 45.10 41.44 42.32 39.92 39.63 40.06 39.81 39.91 43.02 45.15 46.50 47.42 47.27 46.45 45.77 45.82 45.92 45.55 45.44 46.05 46.20
50.57 53.47 57.21 58.60 58.81 58.02 58.08 58.37 57.86 56.73 55.82 55.02 54.58 54.54 54.40 53.62 52.72 52.87 51.71 50.69 49.34 47.56 45.89 42.56 40.29 41.10 40.12 40.07 38.98 39.14 40.04 41.00 42.62 44.39 45.26 45.52 44.87 44.18 43.94 43.32 42.92 43.25 43.36
49.81 53.03 56.77 58.21 58.93 57.87 57.85 57.35 56.48 55.59 54.83 53.93 53.77 54.12 53.35 52.86 52.06 51.54 49.45 47.64 46.71 45.18 44.21 41.89 39.49 38.27 37.33 38.50 39.44 38.37 36.80 38.55 38.30 39.94 41.50 42.37 42.67 42.90 42.84 42.63 42.37 42.05 41.52
50.15 53.24 56.08 58.50 59.04 57.76 57.34 56.04 55.20 53.72 51.75 50.87 51.04 51.37 51.77 52.34 52.57 51.13 48.36 47.80 46.06 44.27 42.55 40.17 38.76 39.16 38.69 38.39 37.76 37.49 36.69 37.10 36.26 38.18 37.46 36.93 38.40 38.89 40.16 41.22 40.73 40.53 40.16
49.26 50.98 54.22 58.21 58.06 57.66 56.77 55.74 53.78 52.43 52.19 52.10 51.42 51.99 52.60 53.04 52.44 52.18 51.17 49.76 47.36 44.40 43.09 41.83 40.29 38.85 36.41 36.51 37.57 37.15 36.28 36.43 34.02 35.88 35.13 33.18 36.10 35.30 37.27 38.26 39.37 38.99 38.95
48.29 49.26 54.06 57.12 57.85 56.23 56.05 55.31 54.29 52.58 51.31 50.47 50.06 49.82 49.53 50.30 50.27 48.95 49.75 49.05 47.79 46.81 45.32 42.97 39.61 37.54 36.45 37.00 36.98 35.10 34.00 34.49 33.19 33.91 35.40 31.26 34.12 32.28 34.57 36.75 38.00 38.28 38.28
47.90 48.51 54.98 55.70 55.70 54.98 55.30 54.12 52.25 48.52 45.82 44.86 44.63 44.06 42.75 41.50 41.08 40.93 39.93 38.42 37.93 38.10 38.09 37.24 36.84 35.89 35.72 35.82 36.03 35.16 33.52 32.34 33.31 33.52 35.66 29.70 33.00 31.28 33.90 34.65 37.13 37.91 38.60
47.66 49.20 55.10 54.48 52.62 51.00 51.26 49.84 46.70 44.38 42.52 42.33 43.10 42.57 41.52 41.09 44.52 44.26 40.84 40.33 40.76 41.09 43.75 43.52 42.70 41.57 39.79 37.96 36.05 35.08 32.49 31.98 29.67 30.54 32.86 31.95 31.46 31.29 32.40 33.09 34.65 36.09 37.57
48.54 53.73 52.38 51.35 50.62 48.70 50.32 48.38 45.61 43.87 42.11 41.68 42.72 43.48 44.94 43.72 44.06 42.82 39.29 37.89 35.43 33.39 31.91 32.12 32.61 33.69 35.13 36.07 35.60 34.26 33.70 30.60 30.10 29.23 31.88 30.10 31.17 31.98 29.41 32.94 33.81 34.43 35.46